• In Kazakhstan
  • List of Countries
  • For 7 days
  • Water Temperature
  • Satellite Maps
  • Weather Map
  • News
  • Weather Widgets
  • user-avatar
    Login

    Hourly Weather Yulara

    Today, 23 July, Sunday

    Time Temperature Precipitation Wind Pressure Humidity
    00:00 +19°C° 0 mm 2 mps 720 mmHg 31%
    01:00 +19°C° 0 mm 1 mps 720 mmHg 33%
    02:00 +18°C° 0 mm 1 mps 720 mmHg 35%
    03:00 +18°C° 0 mm 1 mps 720 mmHg 36%
    04:00 +16°C° 0 mm 1 mps 720 mmHg 37%
    05:00 +16°C° 0 mm 1 mps 720 mmHg 38%
    06:00 +15°C° 0 mm 1 mps 720 mmHg 39%
    07:00 +18°C° 0 mm 1 mps 720 mmHg 35%
    08:00 +20°C° 0 mm 1 mps 721 mmHg 31%
    09:00 +22°C° 0 mm 1 mps 721 mmHg 27%
    10:00 +23°C° 0 mm 2 mps 721 mmHg 25%
    11:00 +25°C° 0 mm 2 mps 721 mmHg 23%
    12:00 +26°C° 0 mm 2 mps 721 mmHg 21%
    13:00 +27°C° 0 mm 1 mps 720 mmHg 20%
    14:00 +27°C° 0 mm 1 mps 720 mmHg 19%
    15:00 +28°C° 0 mm 1 mps 719 mmHg 18%
    16:00 +26°C° 0 mm 1 mps 719 mmHg 22%
    17:00 +24°C° 0 mm 1 mps 719 mmHg 25%
    18:00 +23°C° 0 mm 1 mps 719 mmHg 28%
    19:00 +22°C° 0 mm 1 mps 719 mmHg 28%
    20:00 +22°C° 0 mm 1 mps 720 mmHg 29%
    21:00 +21°C° 0 mm 1 mps 720 mmHg 29%
    22:00 +20°C° 0 mm 2 mps 720 mmHg 29%
    23:00 +19°C° 0 mm 2 mps 720 mmHg 29%

    Tomorrow, 24 July, Monday

    Time Temperature Precipitation Wind Pressure Humidity
    00:00 +19°C° 0 mm 3 mps 721 mmHg 29%
    01:00 +19°C° 0 mm 3 mps 720 mmHg 29%
    02:00 +18°C° 0 mm 3 mps 720 mmHg 30%
    03:00 +17°C° 0 mm 4 mps 720 mmHg 31%
    04:00 +17°C° 0 mm 4 mps 721 mmHg 31%
    05:00 +15°C° 0 mm 4 mps 721 mmHg 32%
    06:00 +16°C° 0 mm 3 mps 721 mmHg 32%
    07:00 +17°C° 0 mm 3 mps 721 mmHg 30%
    08:00 +18°C° 0 mm 3 mps 722 mmHg 28%
    09:00 +20°C° 0 mm 3 mps 722 mmHg 26%
    10:00 +21°C° 0 mm 3 mps 722 mmHg 23%
    11:00 +23°C° 0 mm 4 mps 722 mmHg 21%
    12:00 +26°C° 0 mm 4 mps 722 mmHg 18%
    13:00 +27°C° 0 mm 4 mps 721 mmHg 18%
    14:00 +27°C° 0 mm 3 mps 721 mmHg 17%
    15:00 +28°C° 0 mm 3 mps 720 mmHg 17%
    16:00 +26°C° 0 mm 2 mps 720 mmHg 20%
    17:00 +24°C° 0 mm 1 mps 720 mmHg 23%
    18:00 +22°C° 0 mm 1 mps 720 mmHg 26%
    19:00 +22°C° 0 mm 1 mps 720 mmHg 26%
    20:00 +21°C° 0 mm 1 mps 721 mmHg 26%
    21:00 +20°C° 0 mm 2 mps 721 mmHg 26%
    22:00 +20°C° 0 mm 2 mps 721 mmHg 26%
    23:00 +19°C° 0 mm 3 mps 721 mmHg 26%

    Day after tomorrow, 25 July, Tuesday

    Time Temperature Precipitation Wind Pressure Humidity
    00:00 +19°C° 0 mm 3 mps 721 mmHg 27%
    01:00 +18°C° 0 mm 3 mps 721 mmHg 27%
    02:00 +17°C° 0 mm 3 mps 721 mmHg 28%
    03:00 +16°C° 0 mm 3 mps 721 mmHg 29%
    04:00 +16°C° 0 mm 3 mps 721 mmHg 30%
    05:00 +15°C° 0 mm 2 mps 721 mmHg 31%
    06:00 +15°C° 0 mm 2 mps 722 mmHg 32%
    07:00 +16°C° 0 mm 2 mps 722 mmHg 29%
    08:00 +18°C° 0 mm 2 mps 723 mmHg 27%
    09:00 +19°C° 0 mm 2 mps 723 mmHg 24%
    10:00 +21°C° 0 mm 2 mps 723 mmHg 22%
    11:00 +24°C° 0 mm 3 mps 723 mmHg 20%
    12:00 +25°C° 0 mm 4 mps 722 mmHg 18%
    13:00 +26°C° 0 mm 3 mps 722 mmHg 17%
    14:00 +27°C° 0 mm 3 mps 721 mmHg 16%
    15:00 +27°C° 0 mm 2 mps 721 mmHg 16%
    16:00 +26°C° 0 mm 2 mps 721 mmHg 18%
    17:00 +24°C° 0 mm 2 mps 720 mmHg 21%
    18:00 +22°C° 0 mm 1 mps 720 mmHg 23%
    19:00 +22°C° 0 mm 1 mps 721 mmHg 23%
    20:00 +20°C° 0 mm 2 mps 721 mmHg 24%
    21:00 +20°C° 0 mm 2 mps 722 mmHg 24%
    22:00 +19°C° 0 mm 2 mps 722 mmHg 24%
    23:00 +19°C° 0 mm 3 mps 722 mmHg 25%

    26 July, Wednesday

    Time Temperature Precipitation Wind Pressure Humidity
    00:00 +18°C° 0 mm 3 mps 722 mmHg 25%
    01:00 +18°C° 0 mm 3 mps 722 mmHg 26%
    02:00 +17°C° 0 mm 3 mps 721 mmHg 27%
    03:00 +16°C° 0 mm 3 mps 721 mmHg 28%
    04:00 +16°C° 0 mm 3 mps 721 mmHg 28%
    05:00 +14°C° 0 mm 3 mps 721 mmHg 28%
    06:00 +15°C° 0 mm 2 mps 721 mmHg 28%
    07:00 +16°C° 0 mm 2 mps 722 mmHg 26%
    08:00 +18°C° 0 mm 2 mps 722 mmHg 23%
    09:00 +19°C° 0 mm 2 mps 723 mmHg 21%
    10:00 +21°C° 0 mm 3 mps 723 mmHg 19%
    11:00 +24°C° 0 mm 3 mps 723 mmHg 18%
    12:00 +26°C° 0 mm 3 mps 723 mmHg 16%
    13:00 +26°C° 0 mm 3 mps 722 mmHg 16%
    14:00 +27°C° 0 mm 3 mps 721 mmHg 15%
    15:00 +27°C° 0 mm 3 mps 721 mmHg 14%
    16:00 +26°C° 0 mm 3 mps 721 mmHg 16%
    17:00 +24°C° 0 mm 3 mps 721 mmHg 17%
    18:00 +23°C° 0 mm 2 mps 721 mmHg 19%
    19:00 +21°C° 0 mm 2 mps 721 mmHg 19%
    20:00 +21°C° 0 mm 3 mps 722 mmHg 20%
    21:00 +20°C° 0 mm 3 mps 722 mmHg 21%
    22:00 +19°C° 0 mm 3 mps 722 mmHg 21%
    23:00 +18°C° 0 mm 3 mps 722 mmHg 22%

    27 July, Thursday

    Time Temperature Precipitation Wind Pressure Humidity
    00:00 +18°C° 0 mm 3 mps 722 mmHg 23%
    01:00 +17°C° 0 mm 3 mps 721 mmHg 24%
    02:00 +16°C° 0 mm 3 mps 721 mmHg 24%
    03:00 +16°C° 0 mm 3 mps 721 mmHg 25%
    04:00 +14°C° 0 mm 3 mps 721 mmHg 26%
    05:00 +15°C° 0 mm 2 mps 721 mmHg 27%
    06:00 +14°C° 0 mm 2 mps 721 mmHg 28%
    07:00 +16°C° 0 mm 2 mps 722 mmHg 26%
    08:00 +17°C° 0 mm 2 mps 722 mmHg 24%
    09:00 +19°C° 0 mm 2 mps 723 mmHg 22%
    10:00 +20°C° 0 mm 2 mps 723 mmHg 20%
    11:00 +23°C° 0 mm 2 mps 722 mmHg 18%
    12:00 +25°C° 0 mm 3 mps 722 mmHg 16%
    13:00 +26°C° 0 mm 2 mps 721 mmHg 15%
    14:00 +26°C° 0 mm 2 mps 721 mmHg 15%
    15:00 +27°C° 0 mm 2 mps 720 mmHg 14%
    16:00 +25°C° 0 mm 2 mps 720 mmHg 16%
    17:00 +24°C° 0 mm 1 mps 720 mmHg 18%
    18:00 +22°C° 0 mm 1 mps 720 mmHg 21%
    19:00 +21°C° 0 mm 1 mps 721 mmHg 22%
    20:00 +20°C° 0 mm 1 mps 721 mmHg 22%
    21:00 +20°C° 0 mm 1 mps 721 mmHg 23%
    22:00 +19°C° 0 mm 1 mps 721 mmHg 24%
    23:00 +19°C° 0 mm 1 mps 721 mmHg 25%

    28 July, Friday

    Time Temperature Precipitation Wind Pressure Humidity
    00:00 +18°C° 0 mm 1 mps 721 mmHg 25%
    01:00 +18°C° 0 mm 1 mps 721 mmHg 25%
    02:00 +17°C° 0 mm 2 mps 720 mmHg 25%
    03:00 +16°C° 0 mm 2 mps 720 mmHg 25%
    04:00 +16°C° 0 mm 2 mps 720 mmHg 26%
    05:00 +15°C° 0 mm 2 mps 720 mmHg 27%
    06:00 +15°C° 0 mm 2 mps 720 mmHg 28%
    07:00 +17°C° 0 mm 2 mps 721 mmHg 25%
    08:00 +18°C° 0 mm 2 mps 721 mmHg 23%
    09:00 +20°C° 0 mm 2 mps 722 mmHg 21%
    10:00 +23°C° 0 mm 2 mps 722 mmHg 19%
    11:00 +25°C° 0 mm 3 mps 721 mmHg 17%
    12:00 +26°C° 0 mm 3 mps 721 mmHg 16%
    13:00 +27°C° 0 mm 3 mps 721 mmHg 15%
    14:00 +28°C° 0 mm 3 mps 720 mmHg 14%
    15:00 +28°C° 0 mm 3 mps 719 mmHg 13%
    16:00 +26°C° 0 mm 3 mps 719 mmHg 15%
    17:00 +25°C° 0 mm 2 mps 719 mmHg 17%
    18:00 +23°C° 0 mm 2 mps 719 mmHg 19%
    19:00 +21°C° 0 mm 2 mps 720 mmHg 20%
    20:00 +21°C° 0 mm 2 mps 720 mmHg 21%
    21:00 +20°C° 0 mm 2 mps 720 mmHg 22%
    22:00 +19°C° 0 mm 2 mps 720 mmHg 22%
    23:00 +19°C° 0 mm 2 mps 720 mmHg 23%
    Show more